Find Insat 3DR

NORAD ID: 41752 Int'l Des: 2016-054 Owner: ISRO Country: IN operational
HEOCIRCULARGSO

現在のビュー

3D地球を読み込み中...

Insat 3DRについて

説明を読み込み中...

次回通過

Passes for default location (London). Set your location on the main map for personalized predictions.

高度履歴

Loading altitude history...

軌道要素

1 41752U 16054A 26151.08819071 -.00000064 00000-0 00000+0 0 9994
2 41752 0.1310 87.2229 0010394 189.8191 77.3124 1.00271231 35649
Epoch: May 31, 2026 • Age: 7 hours

現在のステータス

高度 35830.2 km
速度 3.07 km/s
衛星直下点 0.04°N, 74.01°E
打ち上げ日 Sep 8, 2016
運用期間 9.7 years
タイプ other

技術仕様

分類 Payload
質量 2211.00 kg
乾燥質量 956.00 kg
総質量 2211.00 kg
長さ 2.40 m
直径 1.60 m
スパン 9.50 m
形状 Box+2 pan
製造者 ISRO
バスタイプ I2K
フェーズステータス In Orbit
所有者/国 ISRO/IN

Most Searched